Regional Weather Roundup
Issued by NWS Kansas City/Pleasant Hill, MO

Home | Current Version | Previous Version | Text Only | Print | Product List | Glossary On
Versions: 1 2 3 4 5 6 7 8 9 10 11 12 13 14 15 16 17 18 19 20 21 22 23 24 25 26 27 28 29 30 31 32 33 34 35 36 37 38 39 40 41 42 43 44 45 46 47 48 49 50
000
ASUS43 KEAX 221311
RWREAX

WEATHER ROUNDUP FOR EASTERN KANSAS AND NORTHWEST MISSOURI
NATIONAL WEATHER SERVICE KANSAS CITY/PLEASANT HILL MO
800 AM CDT TUE JUL 22 2014

KSZ040-057-103>105-MOZ028-029-037-043-221400-
...KANSAS CITY METROPOLITAN AREA...

CITY           SKY/WX    TMP DP  RH WIND       PRES   REMARKS
K.C. INTL      MOSUNNY   78  74  87 SW12      30.03R FOG
K.C. DOWNTOWN  MOSUNNY   80  73  79 SW10      30.02R
LEES SUMMIT    SUNNY     76  72  87 SW10      30.04F
OLATHE - IXD   SUNNY     76  73  91 S10       30.05S FOG
OLATHE - OJC   SUNNY     75  72  90 S8        30.04S FOG
LAWRENCE       MOSUNNY   77  74  90 S7        30.02F FOG

$$

MOZ001>008-011>017-020>025-030>033-038>040-044>046-053-054-221400-
...NORTHERN AND CENTRAL MISSOURI...

CITY           SKY/WX    TMP DP  RH WIND       PRES   REMARKS
ST. JOSEPH     MOSUNNY   78  75  90 S7        30.01R FOG
MOSBY          MOSUNNY   77  73  88 S5        30.02S
WARRENSBURG    SUNNY     75  70  83 S10G16    30.05F
WHITEMAN AFB   MOSUNNY   75  63  65 S13       30.06S
CLINTON        SUNNY     75  72  88 S7        30.08S
SEDALIA        SUNNY     76  69  79 S9        30.08S
WARSAW         NOT AVBL
MARSHALL       MOSUNNY   79  73  83 S8        30.05F HAZE
CHILLICOTHE      N/A     78  72  81 S9        30.02F
MOBERLY        SUNNY     77  66  69 SW10      30.05F
KIRKSVILLE     MOSUNNY   76  70  82 SW13      30.02F

$$

MOZ041-047>049-056>058-063>065-088>090-097-221400-
...EASTERN AND SOUTHERN MISSOURI...

CITY           SKY/WX    TMP DP  RH WIND       PRES   REMARKS
ST. LOUIS INTL SUNNY     77  66  68 SW8       30.10S
SPIRIT OF STL  SUNNY     73  66  78 SW5       30.08S
COLUMBIA       SUNNY     73  68  84 S7        30.08F
JEFFERSON CITY SUNNY     74  67  78 SE3       30.08S
MEXICO         SUNNY     75  75 100 S8        30.07F
HANNIBAL       SUNNY     77  64  65 S12       30.04F
ROLLA          SUNNY     73  65  75 SW12      30.10R
LEBANON        SUNNY     75  68  78 SW5       30.13R
OSAGE BEACH    SUNNY     72  66  83 S3        30.10S
SPRINGFIELD    SUNNY     73  68  84 S8        30.12R
BRANSON        SUNNY     73  68  83 CALM      30.14R
NEVADA         SUNNY     73  70  88 S7        30.11R
JOPLIN         SUNNY     75  69  81 S7        30.11R
WEST PLAINS    SUNNY     72  66  81 CALM      30.14R
MALDEN         SUNNY     73  68  83 CALM      30.11S HAZE

$$

IAZ060-094-KSZ022-034>040-054-083-096-NEZ052-066-093-221400-
...KANSAS...SOUTHEAST NEBRASKA AND IOWA...

CITY           SKY/WX    TMP DP  RH WIND       PRES   REMARKS
TOPEKA         MOSUNNY   80  75  84 S7        30.02R
MANHATTAN      SUNNY     78  74  87 SW6       30.01R FOG
EMPORIA        MOSUNNY   75  74  96 S8        30.05R FOG
CHANUTE        SUNNY     76  72  87 S10       30.09R
WICHITA        MOSUNNY   77  74  90 S8        30.07R
OMAHA          PTSUNNY   83  70  64 W7        29.97R
LINCOLN        MOSUNNY   81  70  69 W8        30.01R
FALLS CITY     MOSUNNY   78  74  87 CALM      30.01R
LAMONI         CLOUDY    77  74  90 S17       29.98F
DES MOINES     CLOUDY    80  74  81 SW10      29.93S

$$



USA.gov is the U.S. government's official web portal to all federal, state and local government web resources and services.